ONEWEB-0156 (48052 NORAD) Tracking and Keplerian Element Data

This shows tracking and keplerian element data for the satellite.

Feedback or suggestion? Click here.




ElementValue
Catalog48052
NameONEWEB-0156
Epoch Orbit196
Epoch Day173.91668981
Epoch Year2021
RAAN322.3404
Inclination87.8047
Eccentricity0.000929
Argument of Perigee333.2932
Mean Anonmoly40.8745
Mean Motion13.77051033
Decay Rate1.5E-07
L11 48052U 21025L 21173.91668981 .00000015 00000-0 00000-0 0 9997
L22 48052 87.8047 322.3404 0009290 333.2932 40.8745 13.77051033 1962

Live tracking and technical data element details for ONEWEB-0156 (NORAD 48052). ONEWEB-0156 can be tracked NOW for your location showing map with azimuth and elevation plus other details from your city location.

Track the satellite on the map from your city or location and see movement details for azimuth, elevation, latitude, longitude, range, height, and movement on the map or in text.







IsCatalogInMostPopularTable: catalog: 48052, numindb: 47
Update: records affected: 1



GetName: 48052 ONEWEB-0156

Hit Count: updated at: Thu, 24 Jun 2021 03:37:41 GMT